Home > Weather > Växjö > Past weeks

Flag for Sweden Past Weather in Växjö, Sweden — Yesterday and Last 2 Weeks

Now
57 °F

Partly sunny.


Feels Like: 57 °F
Forecast: 48 / 68 °F
Wind: 5 mph from North

Location: Vaxjo Airport

Current Time: May 27, 2016 at 2:27:46 PM

Latest Report: May 27, 2016 at 1:50 PM


Visibility: N/A

Pressure: 30.07 "Hg

Humidity: 72%

Dew Point: 48 °F

Location of VäxjöLocation

Past Weather in Växjö — Graph

°F

Växjö Temperature Yesterday

Maximum temperature yesterday: 66 °F (at 3:20 PM)
Minimum temperature yesterday: 41 °F (at 4:50 AM)
Average temperature yesterday: 54 °F

High & Low Weather Summary for the Past Weeks

 TemperatureHumidityPressure
High81 °F (May 23, 3:20 PM)100% (May 13, 5:20 AM)30.07 "Hg (May 13, 5:20 AM)
Low32 °F (May 13, 3:50 AM)26% (May 12, 4:50 PM)29.47 "Hg (May 14, 1:50 AM)
Average54 °F72%29.81 "Hg
* Reported May 12 1:20 PM — May 27 1:20 PM, Växjö, Weather by CustomWeather, © 2016

Note: Actual official high and low records may vary slightly from our data, if they occured in-between our weather recording intervals... More about our weather records

Advertising

Växjö Weather History for the Previous 24 Hours

Scroll right to see more
 ConditionsComfort  
Time TempWeatherWind HumidityBarometerVisibility
1:20 PM
Fri, May 27
57 °FOvercast.6 mph72%30.07 "HgN/A
12:50 PM57 °FOvercast.5 mph67%30.07 "HgN/A
12:20 PM57 °FOvercast.6 mph67%30.07 "HgN/A
11:50 AM57 °FOvercast.6 mph67%30.07 "HgN/A
11:20 AM55 °FOvercast.3 mph72%30.07 "HgN/A
10:50 AM55 °FOvercast.5 mph72%30.04 "HgN/A
10:20 AM55 °FOvercast.7 mph72%30.04 "HgN/A
9:50 AM55 °FPartly sunny.5 mph72%30.04 "HgN/A
9:20 AM55 °FPartly sunny.5 mph72%30.04 "HgN/A
8:50 AM55 °FPartly sunny.5 mph72%30.04 "HgN/A
8:20 AM55 °FPartly sunny.7 mph67%30.04 "HgN/A
7:50 AM54 °FBroken clouds.8 mph77%30.04 "HgN/A
7:20 AM54 °FScattered clouds.7 mph77%30.01 "HgN/A
6:50 AM52 °FPartly sunny.6 mph77%30.01 "HgN/A
6:20 AM50 °FPartly sunny.5 mph82%30.01 "HgN/A
5:50 AM50 °FPartly sunny.5 mph82%30.01 "HgN/A
5:20 AM48 °FOvercast.3 mph87%30.01 "HgN/A
4:50 AM48 °FOvercast.5 mph82%30.01 "HgN/A
4:20 AM46 °FOvercast.5 mph87%30.04 "HgN/A
3:50 AM45 °FPassing clouds.3 mph93%30.04 "HgN/A
3:20 AM43 °FQuite cool.5 mph93%30.01 "HgN/A
2:50 AM45 °FQuite cool.2 mph87%30.04 "HgN/A
2:20 AM43 °FQuite cool.3 mph87%30.01 "HgN/A
1:50 AM45 °FQuite cool.5 mph81%30.01 "HgN/A
1:20 AM45 °FClear.3 mph81%30.01 "Hg10 mi
12:50 AM43 °FClear.6 mph87%30.01 "Hg10 mi
12:20 AM45 °FClear.3 mph87%30.01 "Hg10 mi
11:50 PM
Thu, May 26
45 °FClear.No wind81%30.01 "Hg10 mi
11:20 PM45 °FClear.No wind87%30.01 "Hg10 mi
10:50 PM46 °FClear.2 mph82%30.01 "Hg10 mi
10:20 PM50 °FSunny.3 mph71%30.01 "Hg10 mi
9:50 PM52 °FSunny.7 mph62%30.01 "Hg10 mi
9:20 PM54 °FSunny.7 mph58%30.01 "Hg10 mi
8:50 PM55 °FSunny.10 mph55%30.01 "Hg10 mi
8:20 PM57 °FPassing clouds.13 mph55%30.01 "HgN/A
7:50 PM59 °FSunny.13 mph51%30.01 "Hg10 mi
7:20 PM59 °FSunny.13 mph51%29.98 "Hg10 mi
6:50 PM63 °FPassing clouds.7 mph42%29.98 "HgN/A
6:20 PM63 °FPassing clouds.7 mph42%29.98 "HgN/A
5:50 PM64 °FPassing clouds.9 mph43%29.98 "HgN/A
5:20 PM64 °FPassing clouds.9 mph40%29.98 "HgN/A
4:50 PM63 °FSunny.10 mph42%29.98 "Hg10 mi
4:20 PM64 °FPassing clouds.12 mph40%29.98 "HgN/A
3:50 PM63 °FPassing clouds.12 mph37%29.98 "HgN/A
3:20 PM66 °FPassing clouds.9 mph37%29.98 "HgN/A
2:50 PM63 °FPartly sunny.12 mph39%29.98 "HgN/A
2:20 PM64 °FPassing clouds.10 mph40%30.01 "HgN/A
Weather by CustomWeather, © 2016

See weather overviewHow to use our weather pages